Alexandria, LA

5:29 AM CST on February 24, 2017 (GMT -0600)
Alexandria International

Weather History for KAEX - January, 2012

Change the Weather History Date:

Monday, January 16, 2012

  Actual Average Record
Temperature  
Mean Temperature 65 °F 49 °F  
Max Temperature 75 °F 59 °F 79 °F (1935)
Min Temperature 54 °F 38 °F 18 °F (1972)
Degree Days  
Heating Degree Days 0 16  
Month to date heating degree days 200 256  
Since 1 July heating degree days 1012 1045  
Growing Degree Days 13 (Base 50)    
Moisture  
Dew Point 57 °F    
Average Humidity 71    
Maximum Humidity 87    
Minimum Humidity 55    
Precipitation  
Precipitation T in 0.15 in 1.83 in (2001)
Month to date precipitation 1.08 2.42  
Year to date precipitation 1.08 2.42  
Snow  
Snow 0.00 in - T in (1957)
Month to date snowfall 0.0  
Since 1 July snowfall 0.0  
Snow Depth 0.00 in    
Sea Level Pressure  
Sea Level Pressure 30.15 in    
Wind  
Wind Speed 12 mph (South)    
Max Wind Speed 26 mph    
Max Gust Speed 39 mph    
Visibility 10 miles    
Events      
T = Trace of Precipitation, MM = Missing Value Source: NWS Daily Summary

Daily Weather History Graph

Daily Weather History Graph

Search for Another Location

Airport or City:

Trip Planner

Search our weather history database for the weather conditions in past years. The results will help you decide how hot, cold, wet, or windy it might be!

Date:

Astronomy

Jan. 16, 2012 Rise Set
Actual Time 7:09 AM CST 5:30 PM CST
Civil Twilight 6:43 AM CST 5:56 PM CST
Nautical Twilight 6:13 AM CST 6:26 PM CST
Astronomical Twilight 5:44 AM CST 6:55 PM CST
Moon 12:26 AM CST (1/16) 11:39 AM CST (1/16)
Length of Visible Light 11h 13m
Length of Day
10h 20m
Last Quarter, 46% of the Moon is Illuminated
Jan 16
Last Quarter
Jan 23
New
Jan 30
First Quarter
Feb 7
Full
Feb 14
Last Quarter

Hourly Weather History & Observations

Time (CST) Temp. Dew Point Humidity Pressure Visibility Wind Dir Wind Speed Gust Speed Precip Events Conditions
12:53 AM 55.9 °F 41.0 °F 57% 30.28 in 10.0 mi SSE 11.5 mph - N/A   Overcast
1:53 AM 55.0 °F 42.1 °F 62% 30.27 in 10.0 mi SSE 9.2 mph - N/A   Overcast
2:53 AM 55.0 °F 44.1 °F 67% 30.25 in 10.0 mi SSE 10.4 mph - N/A   Overcast
3:53 AM 55.0 °F 46.0 °F 72% 30.24 in 10.0 mi SSE 8.1 mph - N/A   Overcast
4:53 AM 54.0 °F 46.0 °F 75% 30.24 in 10.0 mi SE 9.2 mph - N/A   Overcast
5:53 AM 53.6 °F 48.2 °F 82% 30.23 in 10.0 mi SE 8.1 mph - N/A   Overcast
6:53 AM 54.0 °F 48.9 °F 83% 30.24 in 10.0 mi SE 6.9 mph - N/A   Overcast
7:53 AM 55.9 °F 51.1 °F 84% 30.23 in 10.0 mi SE 8.1 mph - N/A   Overcast
8:53 AM 60.8 °F 53.6 °F 77% 30.23 in 10.0 mi SE 10.4 mph - N/A   Overcast
9:53 AM 66.0 °F 57.9 °F 75% 30.24 in 10.0 mi SSE 11.5 mph - N/A   Overcast
10:53 AM 69.1 °F 59.0 °F 70% 30.22 in 10.0 mi South 15.0 mph 21.9 mph N/A   Overcast
11:53 AM 70.0 °F 60.1 °F 71% 30.20 in 10.0 mi South 13.8 mph - N/A   Overcast
12:49 PM 71.6 °F 60.8 °F 69% 30.15 in 10.0 mi South 15.0 mph 21.9 mph N/A   Overcast
12:53 PM 72.0 °F 61.0 °F 68% 30.16 in 10.0 mi South 15.0 mph - N/A   Overcast
1:02 PM 71.6 °F 60.8 °F 69% 30.14 in 10.0 mi South 13.8 mph 21.9 mph N/A   Overcast
1:10 PM 71.6 °F 60.8 °F 69% 30.13 in 10.0 mi South 12.7 mph 24.2 mph N/A   Overcast
1:53 PM 73.0 °F 60.1 °F 64% 30.12 in 10.0 mi South 17.3 mph 33.4 mph N/A   Overcast
2:53 PM 73.9 °F 61.0 °F 64% 30.10 in 10.0 mi South 17.3 mph 27.6 mph N/A   Mostly Cloudy
3:53 PM 72.0 °F 60.1 °F 66% 30.10 in 10.0 mi South 20.7 mph 26.5 mph N/A   Overcast
4:53 PM 71.1 °F 60.1 °F 68% 30.09 in 10.0 mi South 13.8 mph 24.2 mph N/A   Overcast
5:53 PM 69.8 °F 60.8 °F 73% 30.08 in 10.0 mi South 12.7 mph 23.0 mph N/A   Mostly Cloudy
6:46 PM 69.8 °F 60.8 °F 73% 30.08 in 10.0 mi SSE 8.1 mph 20.7 mph N/A   Overcast
6:53 PM 69.1 °F 60.1 °F 73% 30.09 in 10.0 mi South 11.5 mph 18.4 mph N/A   Overcast
7:14 PM 69.8 °F 60.8 °F 73% 30.08 in 10.0 mi South 15.0 mph 21.9 mph N/A   Overcast
7:50 PM 69.8 °F 60.8 °F 73% 30.08 in 10.0 mi South 15.0 mph 21.9 mph N/A   Overcast
7:53 PM 69.8 °F 60.8 °F 73% 30.08 in 10.0 mi South 15.0 mph 21.9 mph N/A   Overcast
8:00 PM 69.8 °F 60.8 °F 73% 30.08 in 10.0 mi South 15.0 mph 20.7 mph N/A   Overcast
8:24 PM 68.0 °F 60.8 °F 78% 30.09 in 10.0 mi South 18.4 mph 27.6 mph N/A   Overcast
8:53 PM 68.0 °F 61.0 °F 78% 30.10 in 10.0 mi South 13.8 mph 25.3 mph N/A   Overcast
9:53 PM 68.0 °F 61.0 °F 78% 30.11 in 10.0 mi South 11.5 mph 21.9 mph N/A   Overcast
10:53 PM 66.9 °F 62.1 °F 84% 30.09 in 9.0 mi South 10.4 mph 19.6 mph N/A   Overcast
11:53 PM 66.9 °F 62.1 °F 84% 30.07 in 10.0 mi South 9.2 mph 20.7 mph 0.00 in   Overcast